Location: B�hl
(48.6968°N, 8.1352°E)
Time: 22:15:07
(UTC+00:00)

USA 238 DEB - Pass Details

Date: 08 March 2021
Orbit: 995 x 1217 km, 63.4° (Epoch: 18 April)

Event Time Altitude Azimuth Distance (km) Brightness Sun altitude
Rises 19:35:01 0° 216° (SW) 3,721 6.8 -22.4°
Reaches altitude 10° 19:37:33 10° 216° (SW) 2,790 6.1 -22.8°
Maximum altitude 19:44:07 84° 129° (SE) 1,055 3.5 -23.8°
Drops below altitude 10° 19:51:04 10° 42° (NE) 2,938 5.8 -24.9°
Sets 19:53:48 0° 42° (NE) 3,931 6.5 -25.3°
